Location: Mexico
(19.4000°N, 99.1500°W)
Time: 01:29:25
(UTC-06:00)

ISS - Pass Details

Date: 13 October 2019
Orbit: 411 x 421 km, 51.6° (Epoch: 15 October)

Event Time Altitude Azimuth Distance (km) Brightness Sun altitude
Rises 18:44:44 0° 321° (NW) 2,331 0.5 -7.8°
Reaches altitude 10° 18:46:49 10° 322° (NW) 1,469 -0.5 -8.3°
Maximum altitude 18:50:07 88° 56° (NE) 412 -3.8 -9.0°
Drops below altitude 10° 18:53:25 10° 141° (SE) 1,466 -1.3 -9.8°
Enters shadow 18:55:09 - 142° (SE) 2,188 -0.4 -10.2°
